Location: Newark
(49.2191°N, 12.6671°E)
Time: 02:52:16
(UTC+00:00)

A-11 Canister half - All Passes

Search period start: 20 January 2020 00:00
Search period end: 30 January 2020 00:00
Orbit: 1525 x 1684 km, 47.3° (Epoch: 19 January)

Date Brightness Start Highest point End Pass type
(mag) Time Alt. Az. Time Alt. Az. Time Alt. Az.
20 Jan - 00:41:00 10° WNW 00:49:43 38° SW 00:58:38 10° SSE night (unlit)
20 Jan - 02:50:47 10° WSW 02:52:32 11° WSW 02:54:18 10° SW night (unlit)
20 Jan - 16:05:26 10° SSE 16:11:17 19° SE 16:17:14 10° E visible
20 Jan - 18:05:34 10° SW 18:14:29 51° SSE 18:23:41 10° ENE visible
20 Jan - 20:09:27 10° WSW 20:18:57 79° S 20:28:49 10° E visible
20 Jan - 22:14:18 10° W 22:23:54 72° SSW 22:33:49 10° ESE visible
21 Jan - 00:19:20 10° WNW 00:28:07 39° SW 00:37:08 10° SSE night (unlit)
21 Jan - 02:28:10 10° WSW 02:31:00 11° WSW 02:33:53 10° SW night (unlit)
21 Jan - 15:44:14 10° SSE 15:49:46 17° SE 15:55:22 10° E daylight
21 Jan - 17:44:02 10° SW 17:52:53 49° SSE 18:02:01 10° ENE visible
21 Jan - 19:47:51 10° WSW 19:57:19 78° S 20:07:09 10° E visible
21 Jan - 21:52:40 10° W 22:02:15 73° SSW 22:12:10 10° ESE visible
21 Jan - 23:57:41 10° WNW 00:06:31 41° SW 00:15:36 10° SSE night (unlit)
22 Jan - 02:05:53 10° W 02:09:29 12° WSW 02:13:06 10° SW night (unlit)
22 Jan - 15:23:04 10° SSE 15:28:15 16° SE 15:33:28 10° E daylight
22 Jan - 17:22:32 10° SW 17:31:18 47° SSE 17:40:20 10° ENE visible
22 Jan - 19:26:14 10° WSW 19:35:41 78° S 19:45:29 10° E visible
22 Jan - 21:31:03 10° W 21:40:36 74° SSW 21:50:31 10° ESE visible
22 Jan - 23:36:02 10° WNW 23:44:55 42° SW 23:54:04 10° SSE night (unlit)
23 Jan - 01:43:46 10° W 01:47:57 13° WSW 01:52:09 10° SSW night (unlit)
23 Jan - 15:01:58 10° SSE 15:06:44 15° SE 15:11:32 10° E daylight
23 Jan - 17:01:01 10° SW 17:09:43 46° SE 17:18:39 10° ENE visible
23 Jan - 19:04:38 10° WSW 19:14:03 77° S 19:23:48 10° E visible
23 Jan - 21:09:25 10° W 21:18:58 75° SSW 21:28:51 10° ESE visible
23 Jan - 23:14:23 10° WNW 23:23:20 44° SW 23:32:32 10° SSE visible
24 Jan - 01:21:45 10° W 01:26:24 14° SW 01:31:07 10° SSW night (unlit)
24 Jan - 14:40:54 10° SSE 14:45:13 14° SE 14:49:33 10° E daylight
24 Jan - 16:39:31 10° SSW 16:48:09 44° SE 16:56:59 10° ENE visible
24 Jan - 18:43:02 10° WSW 18:52:25 76° SSE 19:02:08 10° E visible
24 Jan - 20:47:48 10° W 20:57:20 76° SSW 21:07:12 10° ESE visible
24 Jan - 22:52:44 10° WNW 23:01:43 45° SW 23:10:59 10° SSE visible
25 Jan - 00:59:47 10° W 01:04:52 15° SW 01:10:00 10° SSW night (unlit)
25 Jan - 14:19:56 10° SSE 14:23:42 13° ESE 14:27:30 10° E daylight
25 Jan - 16:18:02 10° SSW 16:26:34 42° SE 16:35:18 10° ENE visible
25 Jan - 18:21:25 10° WSW 18:30:47 75° SSE 18:40:28 10° E visible
25 Jan - 20:26:11 10° W 20:35:41 77° S 20:45:32 10° ESE visible
25 Jan - 22:31:06 10° WNW 22:40:07 47° SW 22:49:25 10° SE visible
26 Jan - 00:37:53 10° W 00:43:20 16° SW 00:48:50 10° SSW night (unlit)
26 Jan - 13:59:05 10° SE 14:02:12 12° ESE 14:05:19 10° ESE daylight
26 Jan - 15:56:33 10° SSW 16:05:00 41° SE 16:13:37 10° ENE daylight
26 Jan - 17:59:49 10° WSW 18:09:09 74° SSE 18:18:48 10° E visible
26 Jan - 20:04:34 10° W 20:14:03 78° S 20:23:52 10° ESE visible
26 Jan - 22:09:28 10° WNW 22:18:31 48° SSW 22:27:52 10° SE visible
27 Jan - 00:16:01 10° W 00:21:46 17° SW 00:27:38 10° SSW night (unlit)
27 Jan - 13:38:27 10° SE 13:40:41 11° ESE 13:42:56 10° ESE daylight
27 Jan - 15:35:04 10° SSW 15:43:25 39° SE 15:51:57 10° ENE daylight
27 Jan - 17:38:14 10° WSW 17:47:32 73° SSE 17:57:08 10° E visible
27 Jan - 19:42:56 10° W 19:52:25 78° S 20:02:13 10° ESE visible
27 Jan - 21:47:50 10° WNW 21:56:55 50° SSW 22:06:17 10° SE visible
27 Jan - 23:54:11 10° W 00:00:14 19° SW 00:06:23 10° SSW night (unlit)
28 Jan - 13:18:51 10° ESE 13:19:11 10° ESE 13:19:31 10° ESE daylight
28 Jan - 15:13:36 10° SSW 15:21:52 38° SE 15:30:15 10° ENE daylight
28 Jan - 17:16:38 10° WSW 17:25:55 72° SSE 17:35:28 10° E visible
28 Jan - 19:21:19 10° W 19:30:46 79° S 19:40:33 10° ESE visible
28 Jan - 21:26:12 10° WNW 21:35:18 51° SSW 21:44:42 10° SE visible
28 Jan - 23:32:23 10° W 23:38:41 20° SW 23:45:06 10° S night (unlit)
29 Jan - 14:52:09 10° SSW 15:00:18 36° SE 15:08:35 10° ENE daylight
29 Jan - 16:55:03 10° WSW 17:04:17 70° SSE 17:13:48 10° E visible
29 Jan - 18:59:42 10° W 19:09:08 79° S 19:18:53 10° ESE visible
29 Jan - 21:04:34 10° WNW 21:13:42 53° SSW 21:23:08 10° SE visible
29 Jan - 23:10:36 10° W 23:17:07 21° SW 23:23:48 10° S visible
